Regional Weather Roundup
Issued by NWS

Home | Current Version | Previous Version | Graphics & Text | Print | Product List | Glossary On
Versions: 1 2 3 4 5 6 7 8 9 10 11 12 13 14 15 16 17 18 19 20 21 22 23 24 25 26 27 28 29 30 31 32 33 34 35 36 37 38 39 40 41 42 43 44 45 46 47 48 49 50
000
ASUS43 KLOT 282308
RWRIL

ILLINOIS REGIONAL WEATHER ROUNDUP
NATIONAL WEATHER SERVICE CHICAGO/ROMEOVILLE IL
600 PM CDT THU MAY 28 2015

NOTE: "FAIR" INDICATES FEW OR NO CLOUDS BELOW 12,000 FEET WITH NO
SIGNIFICANT WEATHER AND/OR OBSTRUCTIONS TO VISIBILITY.

* THESE STATIONS ARE NOT UNDER NWS QUALITY CONTROL. THEY ALSO MAY NOT
  REPORT WEATHER SUCH AS PRECIPITATION OR FOG.

ILZ001-002-007-009-015-016-024-290000-
NORTHWEST ILLINOIS

CITY           SKY/WX    TMP DP  RH WIND       PRES   REMARKS
MOLINE         MOSUNNY   80  51  36 SE12      30.04F HX  80
STERLING*      SUNNY     82  50  32 SE10G16   30.06F HX  81
SAVANNA*       SUNNY     83  47  28 SE15      30.05F HX  81
$$

ILZ003-004-008-010-011-017-018-290000-
NORTH CENTRAL ILLINOIS

CITY           SKY/WX    TMP DP  RH WIND       PRES   REMARKS
ROCKFORD       MOSUNNY   80  53  39 S13       30.09F HX  80
FREEPORT*      MOSUNNY   79  53  39 SE13      30.10F
ROCHELLE*      MOSUNNY   82  48  30 S16       30.09F HX  81
DE KALB*       MOSUNNY   78  53  42 SE14G20   30.10F
PERU*          MOSUNNY   83  45  26 SE12      30.07F HX  81
$$

ILZ005-006-012>014-019>023-290000-
NORTHEAST ILLINOIS

CITY           SKY/WX    TMP DP  RH WIND       PRES   REMARKS
CHICAGO-OHARE  PTSUNNY   80  52  37 E15       30.10F HX  80
CHICAGO-MIDWAY PTSUNNY   81  54  39 E12       30.10F HX  81
AURORA         MOSUNNY   83  48  29 SE14      30.09F HX  81
LANSING*       MOSUNNY   80  48  32 SE14      30.11F
JOLIET*        MOSUNNY   83  53  36 SE8       30.09F HX  82
WAUKEGAN       MOSUNNY   73  57  57 E5        30.12F
DUPAGE AIRPORT MOSUNNY   82  51  34 SE9       30.09F HX  81
KANKAKEE*      MOSUNNY   82  54  38 SE6       30.09F HX  81
WHEELING       MOSUNNY   79  53  40 E10       30.12F
MORRIS*        MOSUNNY   83  50  31 SE13      30.07F HX  82
ROMEOVILLE*    MOSUNNY   82  49  32 SE12      30.09F HX  80
NORTHERLY ISL    N/A     68  56  65 N7          N/A
$$

LMZ740>746-290000-
SOUTHERN LAKE MICHIGAN

STATION/POSITION SKY/WX   TEMP    WIND        PRES    VSBY  WAVE
                          AIR SEA DIR/SP/G                  HT/PER
                          (F)     (DEG/KT/KT) (MB)    (MI)  (FT/S)
SOUTHERN BUOY              59 39   70/  6/  6 1021.0F         0
HARRISON CRIB              64      50/ 10/ 13   N/A
BURNHAM HARBOR             67      10/  4/  7   N/A
CALUMET HARBOR             68      30/  6/ 11   N/A
BURNS HARBOR               64      70/  8/ 12 1021.0S
MICHIGAN CITY              62      30/ 10/ 12   N/A
MICHIGAN CITY 6N           60 56   70/  6/  8   N/A           1
ST. JOSEPH                 61 58   40/  8/  8   N/A           1
$$

ILZ025>027-034>036-040-047-049-050-058-095>099-290000-
WEST-CENTRAL ILLINOIS

CITY           SKY/WX    TMP DP  RH WIND       PRES   REMARKS
QUINCY         CLOUDY    73  64  73 CALM      30.06F
GALESBURG*     MOSUNNY   79  54  42 S10G16    30.06F HX  80
MACOMB*        PTSUNNY   80  56  44 SE7       30.08S HX  80
JACKSONVILLE*  TSTM      73  67  83 S3        30.08F
PITTSFIELD*    CLOUDY    69  65  86 CALM      30.06F
$$

ILZ028>032-037-038-041>044-048-051>054-059>061-290000-
CENTRAL ILLINOIS

CITY           SKY/WX    TMP DP  RH WIND       PRES   REMARKS
PONTIAC        MOSUNNY   86  47  26 S10G17    30.08F HX  83
BLOOMINGTON    SUNNY     82  58  43 S10       30.08F HX  82
DECATUR        PTSUNNY   83  60  45 S7        30.07F HX  83
PEORIA         MOSUNNY   83  55  38 SE6       30.06F HX  82
LACON*         MOSUNNY   82  49  31 SE8       30.05F HX  81
LINCOLN*       PTSUNNY   83  57  40 S6        30.03F HX  83
SPRINGFIELD    CLOUDY    84  62  47 SW7       30.06S HX  85
TAYLORVILLE    CLOUDY    79  64  61 SE6       30.06F HX  81
$$

ILZ033-039-045-046-055>057-062-063-290000-
EAST-CENTRAL ILLINOIS

CITY           SKY/WX    TMP DP  RH WIND       PRES   REMARKS
CHAMPAIGN      MOSUNNY   85  53  33 S6        30.07F HX  83
DANVILLE*      SUNNY     83  55  37 CALM      30.06F HAZE    HX  82
RANTOUL*       SUNNY     87  54  32 S7        30.07F HX  85
PARIS*         MOSUNNY   84  60  44 S10       30.09F HX  84
$$

ILZ079-100>102-290000-
SOUTHWEST ILLINOIS

CITY           SKY/WX    TMP DP  RH WIND       PRES   REMARKS
BELLEVILLE     PTSUNNY   81  69  67 VRB3      30.04F HX  84
CAHOKIA*       PTSUNNY   83  65  54 S10       30.04F HX  85
SPARTA*        PTSUNNY   79  66  63 S12       30.07F HX  81
$$

ILZ064>066-069>071-074>076-080>082-084>086-088>090-092>094-290000-
SOUTH-CENTRAL ILLINOIS

CITY           SKY/WX    TMP DP  RH WIND       PRES   REMARKS
CARBONDALE     MOSUNNY   81  63  54 SW10      30.07F HX  82
CAIRO*         PTSUNNY   82  66  59 S6        30.07F HX  84
EFFINGHAM*     PTSUNNY   76  62  62 CALM      30.09F
MARION         PTSUNNY   82  66  57 MISG      30.08F HX  85
MT. VERNON     MOSUNNY   84  66  54 S10       30.07F HX  86
CENTRALIA*     MOSUNNY   84  63  48 S5        30.07F HX  85
SALEM*         MOSUNNY   84  63  49 S8        30.08S HX  85
METROPOLIS*    MOSUNNY   82  65  56 CALM      30.07F HX  83
$$

ILZ067-068-072-073-078-083-087-091-290000-
SOUTHEAST ILLINOIS

CITY           SKY/WX    TMP DP  RH WIND       PRES   REMARKS
LAWRENCEVILLE  MOSUNNY   84  62  47 S9        30.08F HX  85
FLORA*         MOSUNNY   79  66  64 NE5       30.07F HX  81
FAIRFIELD*     PTSUNNY   84  63  48 S6        30.06F HX  85
HARRISBURG*    MOSUNNY   83  63  50 S6        30.09F HX  84
ROBINSON*      MOSUNNY   84  61  45 SE10G16   30.09F HX  84
CARMI*         MOSUNNY   88  55  33 S8        30.07F HX  86
$$

ABBREVIATIONS USED IN REMARKS
   TC - TEMPERATURE IN CELSIUS
  WCI - WIND CHILL INDEX
   HX - HEAT INDEX
  VSB - VISIBILITY
$$



USA.gov is the U.S. government's official web portal to all federal, state and local government web resources and services.